Tracking 31027 objects as of 19-Jul-2025
HD Live streaming from Space Station
objects crossing your sky now

SL-3 R/B

Track SL-3 R/B now!
10-day predictions


NORAD ID: 12586
Int'l Code: 1981-065B
Perigee: 476.1 km
Apogee: 496.3 km
Inclination: 97.7 °
Period: 94.2 minutes
Semi major axis: 6857 km
RCS: 7.238 m2 (large)
Launch date: July 10, 1981
Source: Commonwealth of Independent States (former USSR) (CIS)
Launch site: TYURATAM MISSILE AND SPACE COMPLEX (TTMTR)

Note: This is a ROCKET BODY
Your satellite tracking list
STARLINK-2062
Track 1 satellite(s)




NASA's NSSDC Master Catalog

Two Line Element Set (TLE):
1 12586U 81065B   25199.54128157  .00005276  00000-0  19013-3 0  9998
2 12586  97.6643 229.5064 0014698 108.6506 251.6330 15.28913680399139
Source of the keplerian elements: AFSPC